SCP
0 0 0 0 0 0 0 0 0 0 0 0 0 0 0 0 0 0 0 0 0 0 0 0 0 0 0 0 0 0 0 0 0 0 0 0 0 0 0 0 0 0 0 0 0 0 0
0 0 0 0 0 0 0 0 0 0 0 0 0 0 0 0 0 0 0 0 0 0 0 0 0 0 0 0 0 0 0 0 0 0 0 0 0 0 0 0 0 0 0 0 0 0 0
0 0 0 0 0 0 0 0 0 0 0 0 0 0 0 0 0 0 0 0 0 0 0 0 0 0 0 0 0 0 0 0 0 0 0 0 0 0 0 0 0 0 0 0 0 0 0
0 0 0 0 0 0 0 0 0 0 0 0 0 0 0 0 0 0 0 0 0 0 0 0 0 0 0 0 0 0 0 0 0 0 0 0 0 0 0 0 0 0 0 0 0 0 0
-0 -0 0 0 0 0 0 0 0 0 0 0 0 0 0 0 0 0 0 0 0 0 0 0 0 0 0 0 0 0 0 0 0 0 0 0 0 0 0 0 0 0 0 0 0 0 0
0 -0 -0 0 0 0 0 0 0 0 0 0 0 0 0 0 0 0 0 0 0 0 0 0 0 0 0 0 0 0 0 0 0 0 0 0 0 0 0 0 0 0 0 0 0 0 0
0 0 0 -0 0 0 0 0 0 0 0 0 0 0 0 0 0 0 0 0 0 0 0 0 0 0 0 0 0 0 0 0 0 0 0 0 0 0 0 0 0 0 0 0 0 0 0
0 0 0 -0 -0 0 0 0 0 0 0 0 0 0 0 0 0 0 0 0 0 0 0 0 0 0 0 0 0 0 0 0 0 0 0 0 0 0 0 0 0 0 0 0 0 0 0
-0 -0 0 0 -0 -0 0 0 0 0 0 0 0 0 0 0 0 0 0 0 0 0 0 0 0 0 0 0 0 0 0 0 0 0 0 0 0 0 0 0 0 0 0 0 0 0 0
0 -0 0 0 -0 0 0 0 0 0 0 0 0 0 0 0 0 0 0 0 0 0 0 0 0 0 0 0 0 0 0 0 0 0 0 0 0 0 0 0 0 0 0 0 0 0 0
0 -0 0 0 0 0 0 0 0 0 0 0 0 0 0 0 0 0 0 0 0 0 0 0 0 0 0 0 0 0 0 0 0 0 0 0 0 0 0 0 0 0 0 0 0 0 0
0 0 0 0 -0 0 -0 0 0 0 0 0 0 0 0 0 0 0 0 0 0 0 0 0 0 0 0 0 0 0 0 0 0 0 0 0 0 0 0 0 0 0 0 0 0 0 0
0 0 0 0 0 0 0 0 0 0 0 0 0 0 0 0 0 0 0 0 0 0 0 0 0 0 0 0 0 0 0 0 0 0 0 0 0 0 0 0 0 0 0 0 0 0 0
0 0 0 0 0 0 0 0 0 0 0 0 0 0 0 0 0 0 0 0 0 0 0 0 0 0 0 0 0 0 0 0 0 0 0 0 0 0 0 0 0 0 0 0 0 0 0
0 -0 -0 0 -0 0 0 0 0 0 0 0 0 0 0 0 0 0 0 0 0 0 0 0 0 0 0 0 0 0 0 0 0 0 0 0 0 0 0 0 0 0 0 0 0 0 0
-0 0 0 0 -0 0 0 0 0 0 0 0 0 0 0 0 0 0 0 0 0 0 0 0 0 0 0 0 0 0 0 0 0 0 0 0 0 0 0 0 0 0 0 0 0 0 0
-0 0 0 0 0 0 0 0 0 0 0 0 0 0 0 0 0 0 0 0 0 0 0 0 0 0 0 0 0 0 0 0 0 0 0 0 0 0 0 0 0 0 0 0 0 0 0
-0 -0 0 0 0 0 0 0 0 0 0 0 0 0 0 0 0 0 0 0 0 0 0 0 0 0 0 0 0 0 0 0 0 0 0 0 0 0 0 0 0 0 0 0 0 0 0
-0 0 0 0 0 0 0 0 0 0 0 0 0 0 0 0 0 0 0 0 0 0 0 0 0 0 0 0 0 0 0 0 0 -0 0 0 0 0 0 0 0 0 0 0 0 0 0
-0 0 0 0 0 0 0 0 0 0 0 0 0 0 0 0 0 0 0 0 0 0 0 0 0 0 0 0 0 0 0 0 0 0 0 0 0 0 0 0 0 0 0 0 0 0 0
-0 0 0 0 0 0 0 0 0 0 0 0 0 0 0 0 0 0 0 0 0 0 0 0 0 0 0 0 0 0 0 0 0 0 0 0 0 0 0 0 0 0 0 0 0 0 0
-0 0 0 0 0 -0 0 0 0 0 0 0 0 0 0 0 0 0 0 0 0 0 0 0 0 0 0 0 0 0 0 0 0 0 0 0 0 0 0 0 0 0 0 0 0 0 0
-0 0 0 0 0 -0 0 0 0 0 0 0 0 0 0 0 0 0 0 0 0 0 0 0 0 0 0 0 0 0 0 0 0 0 0 0 0 0 0 0 0 0 0 0 0 0 0
-0 -0 -0 -0 0 0 0 0 0 0 0 0 0 0 0 0 0 0 0 0 0 0 0 0 0 0 0 0 0 0 0 0 0 0 0 0 0 0 0 0 0 0 0 0 0 0 0
-0 0 0 -0 0 0 0 0 0 0 0 0 0 0 0 -0 -0 0 0 0 0 0 0 0 0 0 0 0 0 0 0 0 0 0 0 0 0 0 0 0 0 0 0 0 0 0 0
0 -0 -0 0 0 0 0 0 0 0 0 0 0 0 0 0 -0 0 -0 0 0 0 0 0 0 0 0 0 0 0 0 0 0 0 0 0 0 0 0 0 0 0 0 0 0 0 0
-0 -0 0 0 -0 0 0 0 0 0 -0 0 0 0 0 0 0 0 0 0 0 0 0 0 0 0 0 0 0 0 0 0 0 0 0 0 0 0 0 0 0 0 0 0 0 0 0
0 0 0 -0 0 0 -0 0 0 0 0 0 0 0 0 0 0 0 0 0 0 0 0 0 0 0 0 0 0 0 0 0 0 0 0 0 0 0 0 0 0 0 0 0 0 0 0
0 0 -0 0 0 -0 -0 -0 0 0 0 0 0 0 0 0 0 0 0 0 0 0 0 0 0 0 0 0 0 0 0 0 0 0 0 0 0 0 0 0 0 0 0 0 0 0 0
Wind_Speed_500mb
77 98 71 74 79 82 77 77 74 69 64 70 75 65 54 48 47 42 34 28 25 24 20 14 14 13 12 11 17 11 6 8 4 16 23 21 19 18 17 15 14 17 12 10 9 6 5
57 76 87 74 82 85 79 77 70 65 59 64 71 71 60 47 48 43 39 34 27 24 23 18 14 14 10 20 17 21 11 7 4 9 19 20 11 16 13 11 22 14 16 15 10 12 8
68 49 98 76 80 85 86 77 72 70 67 61 65 70 68 53 51 46 43 36 32 30 24 22 18 18 16 18 9 16 20 4 5 9 14 13 11 16 10 10 8 9 13 14 21 19 17
69 71 63 80 76 86 85 83 82 84 78 70 63 63 67 66 57 49 44 40 36 31 27 24 21 17 12 16 28 11 13 12 8 8 11 11 9 11 8 12 12 14 11 18 12 14 12
53 57 82 64 70 90 93 86 86 92 87 78 71 67 70 69 65 57 49 43 41 33 31 26 22 16 10 11 26 25 20 11 13 10 11 19 10 10 13 19 12 17 12 21 11 14 8
55 53 58 83 71 83 97 97 89 87 86 81 79 77 74 68 61 56 49 43 42 38 32 23 15 11 23 11 15 20 26 17 12 16 12 14 15 13 16 19 13 14 18 14 15 11 15
55 54 59 69 90 59 93 110 93 89 88 82 80 83 79 72 67 61 59 55 34 16 36 17 18 9 5 17 12 18 25 21 18 21 14 21 15 21 26 26 14 11 14 12 7 3 7
61 55 59 55 74 77 73 89 93 89 93 83 82 84 85 74 74 68 68 53 59 22 13 28 11 22 10 16 9 12 33 24 27 24 26 14 24 23 12 17 23 14 12 13 8 7 9
60 66 56 59 62 82 59 72 84 91 95 88 86 76 78 72 68 69 73 50 49 33 10 24 29 20 16 17 6 25 35 21 25 27 28 27 5 7 16 14 18 21 22 17 19 15 25
55 58 59 59 56 79 81 84 86 91 90 89 91 83 81 69 81 79 68 46 46 28 2 17 20 22 27 16 11 18 34 25 18 29 26 24 18 11 19 23 15 15 14 17 13 11 9
52 54 54 55 55 76 66 55 91 87 89 86 86 90 80 83 61 80 75 51 52 31 11 23 21 19 31 32 26 20 31 22 24 21 16 9 15 22 22 21 19 6 6 7 11 17 22
49 52 52 54 56 44 77 65 77 82 91 86 91 92 93 91 67 76 72 60 45 8 18 12 17 25 32 47 13 19 21 12 7 16 17 8 3 9 24 4 17 13 9 4 2 7 13
48 48 53 49 53 31 62 65 73 76 93 84 93 91 97 97 68 86 80 66 7 12 9 14 18 28 38 26 25 22 26 25 20 15 17 14 13 6 4 12 4 17 15 4 4 7 13
49 45 46 39 39 25 64 73 69 79 83 84 94 88 89 87 69 92 92 14 17 11 6 10 23 33 31 32 31 25 31 26 29 17 21 17 12 27 23 19 11 26 24 8 10 14 13
45 46 42 38 26 17 53 72 69 75 76 98 95 82 79 71 65 96 58 14 15 11 20 27 29 24 14 32 13 29 29 29 33 33 13 12 9 5 11 11 17 20 22 24 16 9 13
46 47 41 35 35 24 39 49 72 71 79 86 90 79 74 82 71 89 21 16 8 13 31 39 15 19 17 33 26 31 32 27 31 33 22 8 8 4 11 9 20 21 8 7 9 10 19
53 54 43 41 36 34 49 46 58 64 70 75 70 42 69 85 86 69 22 17 8 11 39 31 25 17 23 34 28 40 17 7 37 27 36 17 13 9 11 20 26 18 10 16 11 15 11
60 56 50 42 40 41 46 45 57 66 73 83 47 8 80 91 26 13 25 18 24 23 8 7 15 11 25 37 31 33 25 15 19 35 31 34 14 17 19 9 21 30 30 34 18 16 19
66 60 57 50 48 46 44 45 49 59 80 82 39 12 82 94 20 14 3 18 15 20 14 15 9 14 12 25 15 23 25 16 15 32 21 26 12 9 9 3 15 19 28 38 36 29 39
72 63 55 51 49 50 50 49 47 48 54 63 21 7 11 36 27 9 15 23 27 31 21 15 10 13 16 18 7 25 15 8 18 33 18 35 11 15 17 9 5 15 34 36 38 29 31
75 64 57 49 48 52 49 48 49 55 56 48 11 5 4 9 10 15 21 22 40 19 19 27 10 24 20 8 19 13 20 10 9 12 16 17 10 19 21 25 19 24 26 29 40 45 42
68 61 58 49 48 47 48 45 49 54 48 31 13 7 8 10 34 21 10 19 40 31 25 22 15 28 29 15 18 18 25 17 15 15 16 12 7 14 6 16 21 36 43 41 46 47 49
61 57 51 45 47 44 43 44 47 52 50 13 17 22 11 9 8 10 6 10 24 28 7 36 25 26 20 14 9 9 11 12 7 16 28 14 7 4 20 15 10 28 25 49 52 51 47
49 49 45 42 43 41 45 42 49 61 50 31 32 25 14 3 3 6 11 12 23 27 15 19 30 26 23 21 14 11 17 17 9 6 7 16 13 6 10 5 26 23 22 23 24 33 39
42 43 44 39 42 42 41 40 40 50 36 42 41 25 7 8 22 22 16 14 13 9 8 13 16 19 18 12 5 5 3 4 7 17 20 17 18 9 13 21 36 58 33 22 25 42 38
33 34 36 33 33 35 35 38 40 23 20 29 34 19 18 5 10 10 31 34 14 11 7 5 16 30 37 7 6 12 12 7 12 6 21 29 26 20 18 24 40 52 15 25 31 48 37
25 29 34 37 35 32 33 37 32 25 17 16 27 19 10 9 7 14 18 26 30 24 11 12 13 10 23 7 10 13 16 7 14 12 10 12 19 33 32 27 31 41 31 18 25 45 11
12 33 40 40 38 38 38 35 33 30 28 32 23 12 13 7 15 21 16 37 26 31 12 19 12 3 7 11 10 8 11 14 11 21 20 23 17 18 16 22 50 14 5 44 45 76 58
16 11 26 57 43 38 41 37 36 36 35 26 20 19 9 8 11 20 30 29 27 23 17 36 3 17 18 7 7 6 9 6 11 15 17 14 22 24 23 17 39 41 39 46 53 63 60
Wind_Direction_500mb
248 249 253 247 237 235 228 224 223 226 227 223 220 218 219 216 209 208 208 205 205 208 208 210 205 208 191 215 244 226 222 331 240 210 200 206 214 216 216 212 203 234 194 189 159 176 224
261 242 247 249 243 233 223 224 223 222 215 217 217 215 216 211 205 206 211 211 205 208 212 215 207 203 203 234 244 221 221 360 98 162 193 198 214 211 234 207 218 204 202 198 212 211 240
258 257 238 246 246 235 232 226 223 220 218 213 215 207 214 210 202 200 204 208 212 214 213 217 215 213 220 229 257 222 214 200 105 133 174 186 197 184 175 177 173 165 196 216 229 230 245
257 260 261 241 244 241 227 225 225 226 217 216 214 205 206 206 205 207 210 211 215 217 215 216 214 207 245 247 231 211 204 200 142 131 159 170 155 181 214 123 163 198 231 217 147 206 204
260 255 262 262 240 236 230 228 222 220 217 218 213 206 203 204 208 209 214 213 212 209 212 210 206 197 247 238 232 224 217 175 162 150 166 184 156 188 171 194 186 196 230 217 167 212 181
265 260 261 257 261 232 240 222 225 219 215 214 206 204 202 199 202 202 200 200 193 196 198 192 207 199 235 214 214 211 209 191 161 152 134 163 190 204 209 199 212 205 220 210 224 164 221
260 260 256 252 252 257 240 220 218 216 211 207 203 197 199 194 198 193 181 169 160 181 191 201 205 210 108 193 164 206 182 170 164 179 185 192 206 208 210 215 274 275 230 223 168 133 290
259 255 259 262 250 253 248 209 213 211 202 197 197 192 194 189 192 189 184 175 181 187 171 214 202 196 160 169 177 189 176 176 190 196 201 181 225 223 239 219 231 237 233 231 252 247 271
258 255 250 253 263 250 250 217 207 207 202 196 192 194 192 193 186 183 187 178 180 139 178 203 212 205 188 166 182 191 176 186 194 199 200 218 104 223 186 200 217 230 245 252 264 302 278
257 254 249 254 259 241 243 225 205 208 207 195 194 195 202 198 184 180 187 185 172 169 239 185 198 224 190 179 234 180 187 180 194 204 195 226 177 154 206 225 212 245 225 253 278 295 286
251 251 250 254 246 239 240 214 208 203 205 191 194 198 200 197 184 183 184 174 165 157 220 167 163 170 181 174 137 175 182 211 201 190 180 181 207 187 200 210 194 216 128 208 248 268 292
246 246 250 251 240 227 243 225 204 200 202 192 194 192 192 189 192 192 185 163 157 127 222 156 155 174 170 197 155 143 178 192 229 188 223 170 77 214 217 157 196 132 143 144 247 277 260
240 242 250 244 235 245 217 221 212 205 209 191 184 182 183 182 178 179 173 157 153 212 158 167 175 172 183 182 165 177 175 182 179 174 183 164 186 156 176 158 139 197 170 168 221 214 249
233 232 236 231 236 251 195 203 197 198 186 188 181 180 184 179 181 171 158 154 211 148 158 188 160 169 185 169 196 189 179 192 215 206 168 182 181 188 182 204 174 195 193 197 244 249 277
224 224 223 219 227 271 173 188 190 194 190 185 180 180 180 183 183 176 161 203 194 146 146 152 147 165 176 182 189 185 197 204 201 196 177 181 202 196 201 194 174 190 223 243 295 259 271
218 214 210 211 194 195 164 174 179 182 186 182 179 184 187 187 180 170 165 208 182 164 150 145 139 178 176 184 185 190 189 208 212 205 228 175 154 153 166 191 241 240 204 178 213 242 253
207 204 207 198 197 170 182 182 187 191 186 185 174 173 193 185 179 170 198 204 118 172 167 172 143 166 187 183 199 194 206 159 203 181 196 167 220 134 161 200 192 193 209 224 234 236 262
199 196 199 193 192 182 176 170 188 185 192 186 174 147 174 184 185 160 206 152 167 154 218 130 158 131 179 185 193 195 204 216 186 176 197 202 223 211 203 187 244 222 216 219 225 203 238
193 189 191 190 191 191 172 191 190 172 178 167 151 102 167 180 192 183 301 194 161 156 182 166 137 163 179 181 179 207 206 163 198 181 181 171 215 188 170 10 241 234 232 239 239 260 254
184 185 184 184 189 188 187 186 189 192 180 151 137 138 186 188 180 161 158 174 175 189 184 180 123 132 154 192 138 191 192 143 190 192 205 175 198 219 229 85 88 205 232 238 240 243 254
173 177 178 178 184 186 185 185 185 186 186 167 99 85 110 143 146 133 177 157 167 165 192 178 167 181 170 159 174 185 173 142 178 200 173 191 221 231 251 278 273 265 253 244 240 249 249
162 169 172 172 179 181 184 186 179 189 188 162 109 96 71 55 124 142 153 176 174 169 159 181 169 189 191 171 184 172 174 177 175 193 193 208 252 243 242 269 276 270 262 260 260 263 265
153 159 167 172 177 181 178 181 186 182 187 124 132 143 85 98 114 131 141 119 175 144 177 185 182 185 196 214 158 130 166 189 180 186 202 206 175 176 262 262 291 268 238 244 252 252 252
145 159 164 168 172 176 181 170 171 171 178 179 172 158 139 125 110 133 121 120 152 166 142 149 179 182 139 119 82 32 9 340 317 260 287 229 225 193 247 155 250 267 254 270 284 272 251
146 156 162 161 166 172 170 171 175 202 172 132 143 141 106 142 180 161 167 182 195 204 124 158 185 191 173 104 88 128 124 319 294 245 234 232 227 239 236 231 266 267 248 246 261 274 261
143 152 155 160 163 173 169 175 197 192 151 160 163 124 91 130 190 169 171 185 176 149 120 88 176 158 147 128 142 202 200 191 195 243 226 224 229 225 233 247 256 266 276 237 257 264 251
148 169 178 177 175 176 177 176 177 179 186 175 161 168 104 95 159 162 165 186 183 176 131 139 158 139 157 147 177 203 215 196 194 192 165 192 215 227 234 245 257 264 262 192 227 258 272
189 198 191 188 187 183 184 183 182 180 175 199 188 172 148 125 166 166 150 156 171 176 155 153 114 81 153 187 183 180 229 206 250 230 201 188 190 214 229 243 261 183 248 218 243 262 270
358 264 192 198 183 176 177 177 174 179 182 189 185 149 183 129 141 192 205 185 164 177 141 168 150 150 172 180 195 201 207 191 226 242 212 231 214 221 208 229 255 269 258 251 246 257 267
Wind_Speed_850mb
77 98 71 74 79 82 77 77 74 69 64 70 75 65 54 48 47 42 34 28 25 24 20 14 14 13 12 11 17 11 6 8 4 16 23 21 19 18 17 15 14 17 12 10 9 6 5
57 76 87 74 82 85 79 77 70 65 59 64 71 71 60 47 48 43 39 34 27 24 23 18 14 14 10 20 17 21 11 7 4 9 19 20 11 16 13 11 22 14 16 15 10 12 8
68 49 98 76 80 85 86 77 72 70 67 61 65 70 68 53 51 46 43 36 32 30 24 22 18 18 16 18 9 16 20 4 5 9 14 13 11 16 10 10 8 9 13 14 21 19 17
69 71 63 80 76 86 85 83 82 84 78 70 63 63 67 66 57 49 44 40 36 31 27 24 21 17 12 16 28 11 13 12 8 8 11 11 9 11 8 12 12 14 11 18 12 14 12
53 57 82 64 70 90 93 86 86 92 87 78 71 67 70 69 65 57 49 43 41 33 31 26 22 16 10 11 26 25 20 11 13 10 11 19 10 10 13 19 12 17 12 21 11 14 8
55 53 58 83 71 83 97 97 89 87 86 81 79 77 74 68 61 56 49 43 42 38 32 23 15 11 23 11 15 20 26 17 12 16 12 14 15 13 16 19 13 14 18 14 15 11 15
55 54 59 69 90 59 93 110 93 89 88 82 80 83 79 72 67 61 59 55 34 16 36 17 18 9 5 17 12 18 25 21 18 21 14 21 15 21 26 26 14 11 14 12 7 3 7
61 55 59 55 74 77 73 89 93 89 93 83 82 84 85 74 74 68 68 53 59 22 13 28 11 22 10 16 9 12 33 24 27 24 26 14 24 23 12 17 23 14 12 13 8 7 9
60 66 56 59 62 82 59 72 84 91 95 88 86 76 78 72 68 69 73 50 49 33 10 24 29 20 16 17 6 25 35 21 25 27 28 27 5 7 16 14 18 21 22 17 19 15 25
55 58 59 59 56 79 81 84 86 91 90 89 91 83 81 69 81 79 68 46 46 28 2 17 20 22 27 16 11 18 34 25 18 29 26 24 18 11 19 23 15 15 14 17 13 11 9
52 54 54 55 55 76 66 55 91 87 89 86 86 90 80 83 61 80 75 51 52 31 11 23 21 19 31 32 26 20 31 22 24 21 16 9 15 22 22 21 19 6 6 7 11 17 22
49 52 52 54 56 44 77 65 77 82 91 86 91 92 93 91 67 76 72 60 45 8 18 12 17 25 32 47 13 19 21 12 7 16 17 8 3 9 24 4 17 13 9 4 2 7 13
48 48 53 49 53 31 62 65 73 76 93 84 93 91 97 97 68 86 80 66 7 12 9 14 18 28 38 26 25 22 26 25 20 15 17 14 13 6 4 12 4 17 15 4 4 7 13
49 45 46 39 39 25 64 73 69 79 83 84 94 88 89 87 69 92 92 14 17 11 6 10 23 33 31 32 31 25 31 26 29 17 21 17 12 27 23 19 11 26 24 8 10 14 13
45 46 42 38 26 17 53 72 69 75 76 98 95 82 79 71 65 96 58 14 15 11 20 27 29 24 14 32 13 29 29 29 33 33 13 12 9 5 11 11 17 20 22 24 16 9 13
46 47 41 35 35 24 39 49 72 71 79 86 90 79 74 82 71 89 21 16 8 13 31 39 15 19 17 33 26 31 32 27 31 33 22 8 8 4 11 9 20 21 8 7 9 10 19
53 54 43 41 36 34 49 46 58 64 70 75 70 42 69 85 86 69 22 17 8 11 39 31 25 17 23 34 28 40 17 7 37 27 36 17 13 9 11 20 26 18 10 16 11 15 11
60 56 50 42 40 41 46 45 57 66 73 83 47 8 80 91 26 13 25 18 24 23 8 7 15 11 25 37 31 33 25 15 19 35 31 34 14 17 19 9 21 30 30 34 18 16 19
66 60 57 50 48 46 44 45 49 59 80 82 39 12 82 94 20 14 3 18 15 20 14 15 9 14 12 25 15 23 25 16 15 32 21 26 12 9 9 3 15 19 28 38 36 29 39
72 63 55 51 49 50 50 49 47 48 54 63 21 7 11 36 27 9 15 23 27 31 21 15 10 13 16 18 7 25 15 8 18 33 18 35 11 15 17 9 5 15 34 36 38 29 31
75 64 57 49 48 52 49 48 49 55 56 48 11 5 4 9 10 15 21 22 40 19 19 27 10 24 20 8 19 13 20 10 9 12 16 17 10 19 21 25 19 24 26 29 40 45 42
68 61 58 49 48 47 48 45 49 54 48 31 13 7 8 10 34 21 10 19 40 31 25 22 15 28 29 15 18 18 25 17 15 15 16 12 7 14 6 16 21 36 43 41 46 47 49
61 57 51 45 47 44 43 44 47 52 50 13 17 22 11 9 8 10 6 10 24 28 7 36 25 26 20 14 9 9 11 12 7 16 28 14 7 4 20 15 10 28 25 49 52 51 47
49 49 45 42 43 41 45 42 49 61 50 31 32 25 14 3 3 6 11 12 23 27 15 19 30 26 23 21 14 11 17 17 9 6 7 16 13 6 10 5 26 23 22 23 24 33 39
42 43 44 39 42 42 41 40 40 50 36 42 41 25 7 8 22 22 16 14 13 9 8 13 16 19 18 12 5 5 3 4 7 17 20 17 18 9 13 21 36 58 33 22 25 42 38
33 34 36 33 33 35 35 38 40 23 20 29 34 19 18 5 10 10 31 34 14 11 7 5 16 30 37 7 6 12 12 7 12 6 21 29 26 20 18 24 40 52 15 25 31 48 37
25 29 34 37 35 32 33 37 32 25 17 16 27 19 10 9 7 14 18 26 30 24 11 12 13 10 23 7 10 13 16 7 14 12 10 12 19 33 32 27 31 41 31 18 25 45 11
12 33 40 40 38 38 38 35 33 30 28 32 23 12 13 7 15 21 16 37 26 31 12 19 12 3 7 11 10 8 11 14 11 21 20 23 17 18 16 22 50 14 5 44 45 76 58
16 11 26 57 43 38 41 37 36 36 35 26 20 19 9 8 11 20 30 29 27 23 17 36 3 17 18 7 7 6 9 6 11 15 17 14 22 24 23 17 39 41 39 46 53 63 60
Wind_Direction_850mb
248 249 253 247 237 235 228 224 223 226 227 223 220 218 219 216 209 208 208 205 205 208 208 210 205 208 191 215 244 226 222 331 240 210 200 206 214 216 216 212 203 234 194 189 159 176 224
261 242 247 249 243 233 223 224 223 222 215 217 217 215 216 211 205 206 211 211 205 208 212 215 207 203 203 234 244 221 221 360 98 162 193 198 214 211 234 207 218 204 202 198 212 211 240
258 257 238 246 246 235 232 226 223 220 218 213 215 207 214 210 202 200 204 208 212 214 213 217 215 213 220 229 257 222 214 200 105 133 174 186 197 184 175 177 173 165 196 216 229 230 245
257 260 261 241 244 241 227 225 225 226 217 216 214 205 206 206 205 207 210 211 215 217 215 216 214 207 245 247 231 211 204 200 142 131 159 170 155 181 214 123 163 198 231 217 147 206 204
260 255 262 262 240 236 230 228 222 220 217 218 213 206 203 204 208 209 214 213 212 209 212 210 206 197 247 238 232 224 217 175 162 150 166 184 156 188 171 194 186 196 230 217 167 212 181
265 260 261 257 261 232 240 222 225 219 215 214 206 204 202 199 202 202 200 200 193 196 198 192 207 199 235 214 214 211 209 191 161 152 134 163 190 204 209 199 212 205 220 210 224 164 221
260 260 256 252 252 257 240 220 218 216 211 207 203 197 199 194 198 193 181 169 160 181 191 201 205 210 108 193 164 206 182 170 164 179 185 192 206 208 210 215 274 275 230 223 168 133 290
259 255 259 262 250 253 248 209 213 211 202 197 197 192 194 189 192 189 184 175 181 187 171 214 202 196 160 169 177 189 176 176 190 196 201 181 225 223 239 219 231 237 233 231 252 247 271
258 255 250 253 263 250 250 217 207 207 202 196 192 194 192 193 186 183 187 178 180 139 178 203 212 205 188 166 182 191 176 186 194 199 200 218 104 223 186 200 217 230 245 252 264 302 278
257 254 249 254 259 241 243 225 205 208 207 195 194 195 202 198 184 180 187 185 172 169 239 185 198 224 190 179 234 180 187 180 194 204 195 226 177 154 206 225 212 245 225 253 278 295 286
251 251 250 254 246 239 240 214 208 203 205 191 194 198 200 197 184 183 184 174 165 157 220 167 163 170 181 174 137 175 182 211 201 190 180 181 207 187 200 210 194 216 128 208 248 268 292
246 246 250 251 240 227 243 225 204 200 202 192 194 192 192 189 192 192 185 163 157 127 222 156 155 174 170 197 155 143 178 192 229 188 223 170 77 214 217 157 196 132 143 144 247 277 260
240 242 250 244 235 245 217 221 212 205 209 191 184 182 183 182 178 179 173 157 153 212 158 167 175 172 183 182 165 177 175 182 179 174 183 164 186 156 176 158 139 197 170 168 221 214 249
233 232 236 231 236 251 195 203 197 198 186 188 181 180 184 179 181 171 158 154 211 148 158 188 160 169 185 169 196 189 179 192 215 206 168 182 181 188 182 204 174 195 193 197 244 249 277
224 224 223 219 227 271 173 188 190 194 190 185 180 180 180 183 183 176 161 203 194 146 146 152 147 165 176 182 189 185 197 204 201 196 177 181 202 196 201 194 174 190 223 243 295 259 271
218 214 210 211 194 195 164 174 179 182 186 182 179 184 187 187 180 170 165 208 182 164 150 145 139 178 176 184 185 190 189 208 212 205 228 175 154 153 166 191 241 240 204 178 213 242 253
207 204 207 198 197 170 182 182 187 191 186 185 174 173 193 185 179 170 198 204 118 172 167 172 143 166 187 183 199 194 206 159 203 181 196 167 220 134 161 200 192 193 209 224 234 236 262
199 196 199 193 192 182 176 170 188 185 192 186 174 147 174 184 185 160 206 152 167 154 218 130 158 131 179 185 193 195 204 216 186 176 197 202 223 211 203 187 244 222 216 219 225 203 238
193 189 191 190 191 191 172 191 190 172 178 167 151 102 167 180 192 183 301 194 161 156 182 166 137 163 179 181 179 207 206 163 198 181 181 171 215 188 170 10 241 234 232 239 239 260 254
184 185 184 184 189 188 187 186 189 192 180 151 137 138 186 188 180 161 158 174 175 189 184 180 123 132 154 192 138 191 192 143 190 192 205 175 198 219 229 85 88 205 232 238 240 243 254
173 177 178 178 184 186 185 185 185 186 186 167 99 85 110 143 146 133 177 157 167 165 192 178 167 181 170 159 174 185 173 142 178 200 173 191 221 231 251 278 273 265 253 244 240 249 249
162 169 172 172 179 181 184 186 179 189 188 162 109 96 71 55 124 142 153 176 174 169 159 181 169 189 191 171 184 172 174 177 175 193 193 208 252 243 242 269 276 270 262 260 260 263 265
153 159 167 172 177 181 178 181 186 182 187 124 132 143 85 98 114 131 141 119 175 144 177 185 182 185 196 214 158 130 166 189 180 186 202 206 175 176 262 262 291 268 238 244 252 252 252
145 159 164 168 172 176 181 170 171 171 178 179 172 158 139 125 110 133 121 120 152 166 142 149 179 182 139 119 82 32 9 340 317 260 287 229 225 193 247 155 250 267 254 270 284 272 251
146 156 162 161 166 172 170 171 175 202 172 132 143 141 106 142 180 161 167 182 195 204 124 158 185 191 173 104 88 128 124 319 294 245 234 232 227 239 236 231 266 267 248 246 261 274 261
143 152 155 160 163 173 169 175 197 192 151 160 163 124 91 130 190 169 171 185 176 149 120 88 176 158 147 128 142 202 200 191 195 243 226 224 229 225 233 247 256 266 276 237 257 264 251
148 169 178 177 175 176 177 176 177 179 186 175 161 168 104 95 159 162 165 186 183 176 131 139 158 139 157 147 177 203 215 196 194 192 165 192 215 227 234 245 257 264 262 192 227 258 272
189 198 191 188 187 183 184 183 182 180 175 199 188 172 148 125 166 166 150 156 171 176 155 153 114 81 153 187 183 180 229 206 250 230 201 188 190 214 229 243 261 183 248 218 243 262 270
358 264 192 198 183 176 177 177 174 179 182 189 185 149 183 129 141 192 205 185 164 177 141 168 150 150 172 180 195 201 207 191 226 242 212 231 214 221 208 229 255 269 258 251 246 257 267